Location: Newark
(34.1333°N, 7.9667°W)
Time: 16:56:43
(UTC+00:00)

Transit 2A - Pass Details

Date: 20 June 2021
Orbit: 599 x 960 km, 66.7° (Epoch: 22 July)

Event Time Altitude Azimuth Distance (km) Brightness Sun altitude
Rises 17:02:35 0° 229° (SW) 2,877 9.5 31.1°
Reaches altitude 10° 17:05:04 10° 241° (WSW) 1,951 9.0 30.6°
Maximum altitude 17:08:53 29° 302° (WNW) 1,093 8.5 29.8°
Drops below altitude 10° 17:12:42 10° 4° (N) 1,947 8.3 29.1°
Sets 17:15:12 0° 16° (NNE) 2,871 8.9 28.5°
